User: anonymous   Login
Location: Ferma
(41.9500°N, 44.5167°E)
Time: 04:47:03
(UTC+00:00)
Language:

Cosmos 2333 Rocket - Orbit

View from above orbital plane
View from above orbital plane
View from above satellite
View from above satellite

Ground track
Ground track

The orbit data is extracted from the following two-line orbital elements,

1 24298U 96051B   22024.54546826 -.00000064  00000-0 -81348-5 0  9997
2 24298  70.8202 114.4973 0018284 210.6023 149.4032 14.12402688309115
Epoch (UTC): 24 January 2022 13:05:28
Eccentricity: 0.0018284
inclination: 70.8202°
perigee height: 838 km
apogee height: 864 km
right ascension of ascending node: 114.4973°
argument of perigee: 210.6023°
revolutions per day: 14.12402688
mean anomaly at epoch: 149.4032°
orbit number at epoch: 30911

The dashed part of the orbit path shows where the satellite is in the earth's shadow,  

DLR